OK9CPU-9 Weather Reports


Display with metric or nautical units.
time (UTC)temp
F
wind
direction
speed
MPH
gust
MPH
rain 1hr
in
rain 24hr
in
rain mn
in
humidity
%
barometer
mb
20260505124714 96 0.0 0.0 0.00 0.00 0.00 20 1007.1
20260505123038 96 0.0 0.0 0.00 0.00 0.00 20 1007.5
20260505091145 97 0.0 0.0 0.00 0.00 0.00 17 1009.1
20260505085715 96 0.0 0.0 0.00 0.00 0.00 16 1009.3
20260505085510 96 0.0 0.0 0.00 0.00 0.00 16 1009.3
20260505083828 93 0.0 0.0 0.00 0.00 0.00 17 1009.3
20260505080525 89 0.0 0.0 0.00 0.00 0.00 17 1009.5
20260505073215 80 0.0 0.0 0.00 0.00 0.00 21 1009.7
20260505071540 80 0.0 0.0 0.00 0.00 0.00 20 1009.8
20260505064230 81 0.0 0.0 0.00 0.00 0.00 18 1009.9
20260505062555 80 0.0 0.0 0.00 0.00 0.00 18 1010.1
20260505060913 77 0.0 0.0 0.00 0.00 0.00 18 1009.9
20260505051927 60 0.0 0.0 0.00 0.00 0.00 24 1009.9
20260505050252 54 0.0 0.0 0.00 0.00 0.00 28 1009.9
20260505041315 53 0.0 0.0 0.00 0.00 0.00 29 1010.0
20260505033957 53 0.0 0.0 0.00 0.00 0.00 29 1009.9
20260505032330 53 0.0 0.0 0.00 0.00 0.00 29 1010.0
20260505030647 53 0.0 0.0 0.00 0.00 0.00 29 1010.0
20260505025012 54 0.0 0.0 0.00 0.00 0.00 29 1010.1
20260505023337 54 0.0 0.0 0.00 0.00 0.00 29 1010.3
20260505020027 56 0.0 0.0 0.00 0.00 0.00 28 1010.4
20260505014352 57 0.0 0.0 0.00 0.00 0.00 28 1010.5
20260505012717 57 0.0 0.0 0.00 0.00 0.00 28 1010.5
20260505011042 56 0.0 0.0 0.00 0.00 0.00 29 1010.5
20260505005407 56 0.0 0.0 0.00 0.00 0.00 29 1010.6
20260505003732 56 0.0 0.0 0.00 0.00 0.00 29 1010.7
20260505002057 56 0.0 0.0 0.00 0.00 0.00 29 1010.7
20260505000422 57 0.0 0.0 0.00 0.00 0.00 29 1010.9
20260504234747 58 0.0 0.0 0.00 0.00 0.00 29 1011.1
20260504233112 58 0.0 0.0 0.00 0.00 0.00 29 1011.2
20260504231437 58 0.0 0.0 0.00 0.00 0.00 29 1011.4
20260504225809 58 0.0 0.0 0.00 0.00 0.00 29 1011.5
20260504224127 58 0.0 0.0 0.00 0.00 0.00 30 1011.7
20260504222452 59 0.0 0.0 0.00 0.00 0.00 30 1011.9
20260504220824 59 0.0 0.0 0.00 0.00 0.00 30 1011.9
20260504215142 60 0.0 0.0 0.00 0.00 0.00 30 1012.0
20260504213507 60 0.0 0.0 0.00 0.00 0.00 30 1012.2
20260504211832 61 0.0 0.0 0.00 0.00 0.00 30 1012.3
20260504210204 61 0.0 0.0 0.00 0.00 0.00 30 1012.4
20260504201211 63 0.0 0.0 0.00 0.00 0.00 30 1012.5
20260504195536 63 0.0 0.0 0.00 0.00 0.00 30 1012.5
20260504193901 64 0.0 0.0 0.00 0.00 0.00 31 1012.5
20260504192226 65 0.0 0.0 0.00 0.00 0.00 31 1012.5
20260504190551 66 0.0 0.0 0.00 0.00 0.00 31 1012.5
20260504184916 67 0.0 0.0 0.00 0.00 0.00 31 1012.5
20260504183249 68 0.0 0.0 0.00 0.00 0.00 31 1012.4
20260504181606 69 0.0 0.0 0.00 0.00 0.00 30 1012.3
20260504175931 70 0.0 0.0 0.00 0.00 0.00 30 1012.2
20260504174304 71 0.0 0.0 0.00 0.00 0.00 30 1012.2
20260504172621 73 0.0 0.0 0.00 0.00 0.00 29 1012.1
20260504170946 74 0.0 0.0 0.00 0.00 0.00 29 1012.0
20260504160333 80 0.0 0.0 0.00 0.00 0.00 27 1012.1